User: anonymous   Login
Location: Fort Wayne
(41.1310°N, 85.1290°W)
Time: 09:45:34
(UTC-04:00)
Language:

SR - Orbit

View from above orbital plane
View from above orbital plane
View from above satellite
View from above satellite

Ground track
Ground track

The orbit data is extracted from the following two-line orbital elements,

1    46U 60007B   17085.89900446 +.00000049 +00000-0 +32695-4 0  9996
2    46 066.6921 350.4051 0218183 288.9955 068.7627 14.49011290968335
Epoch (UTC): 26 March 2017 21:34:33
Eccentricity: 0.0218183
inclination: 66.6921°
perigee height: 574 km
apogee height: 884 km
right ascension of ascending node: 350.4051°
argument of perigee: 288.9955°
revolutions per day: 14.49011290
mean anomaly at epoch: 68.7627°
orbit number at epoch: 96833

The dashed part of the orbit path shows where the satellite is in the earth's shadow,  

DLR